Terminal Aerodrome Forecast
Issued by NWS Wilmington, OH

Current Version | Previous Version | Graphics & Text | Print | Product List | Glossary On
Versions: 1 2 3 4 5 6 7 8 9 10 11 12 13 14 15 16 17 18 19 20 21 22 23
000
FTUS41 KILN 301700 AAC
TAFCVG
TAF AMD
KCVG 301701Z 3017/0118 35010KT P6SM VCSH SCT035 SCT090
      TEMPO 3017/3018 5SM -TSRA OVC035CB
     FM301800 34012G18KT P6SM BKN050
      TEMPO 3018/3022 5SM -SHRA OVC035
     FM010200 34010KT P6SM OVC035
     FM010600 35010KT P6SM OVC018=

USA.gov is the U.S. government's official web portal to all federal, state and local government web resources and services.